Location: Noverd
(38.0910°N, 121.6877°W)
Time: 12:56:42
(UTC+00:00)

Aureole 1 Rocket - Pass Details

Date: 13 February 2026
Orbit: 374 x 1156 km, 73.9° (Epoch: 16 March)

Event Time Altitude Azimuth Distance (km) Brightness Sun altitude
Rises 13:58:01 0° 196° (SSW) 4,010 7.1 -12.6°
Reaches altitude 10° 14:00:45 10° 197° (SSW) 3,054 6.5 -12.0°
Maximum altitude 14:08:08 89° 282° (WNW) 1,115 4.3 -10.6°
Drops below altitude 10° 14:14:52 10° 18° (NNE) 2,789 6.5 -9.3°
Sets 14:17:17 0° 19° (NNE) 3,647 7.1 -8.8°
